Location: Axtheid
(49.6213°N, 11.8205°E)
Time: 18:01:52
(UTC+00:00)

Nadezhda 4 Rocket - Visible Passes

Search period start: 14 May 2021 00:00
Search period end: 24 May 2021 00:00
Orbit: 950 x 992 km, 82.9° (Epoch: 13 May)

Date Brightness Start Highest point End Pass type
(mag) Time Alt. Az. Time Alt. Az. Time Alt. Az.
17 May 6.7 02:42:59 10° ESE 02:46:44 17° ENE 02:50:30 10° NE visible
20 May 6.8 02:10:58 10° ESE 02:13:47 13° ENE 02:16:34 10° NE visible
21 May 6.5 02:32:37 10° SE 02:37:18 23° E 02:41:57 10° NNE visible
23 May 7.0 01:39:52 10° E 01:40:50 10° ENE 01:41:48 10° ENE visible
